GW4034 Weather Reports


Display with metric or nautical units.
time (UTC)temp
F
wind
direction
speed
MPH
gust
MPH
rain 1hr
in
rain 24hr
in
rain mn
in
humidity
%
barometer
mb
20260906161325 69 197 2.0 2.0 0.00 0.00 0.00 73 1020.0
20260906160824 69 137 4.0 6.0 0.00 0.00 0.00 73 1020.0
20260906160319 70 191 2.0 2.0 0.00 0.00 0.00 72 1020.2
20260906155816 70 197 0.0 0.0 0.00 0.00 0.00 73 1020.1
20260906155311 70 128 2.0 3.0 0.00 0.00 0.00 73 1020.0
20260906154808 69 108 2.0 3.0 0.00 0.00 0.00 74 1020.1
20260906154302 70 115 0.0 1.0 0.00 0.00 0.00 74 1020.1
20260906153800 70 143 3.0 3.0 0.00 0.00 0.00 73 1020.1
20260906153254 70 141 2.0 2.0 0.00 0.00 0.00 73 1020.2
20260906152750 69 107 4.0 6.0 0.00 0.00 0.00 74 1020.2
20260906152244 69 184 4.0 6.0 0.00 0.00 0.00 74 1020.1
20260906151738 68 135 2.0 3.0 0.00 0.00 0.00 75 1020.0
20260906151234 68 141 2.0 3.0 0.00 0.00 0.00 75 1020.0
20260906150729 68 141 4.0 6.0 0.00 0.00 0.00 74 1020.3
20260906150224 69 148 6.0 7.0 0.00 0.00 0.00 74 1020.0
20260906145724 70 203 4.0 4.0 0.00 0.00 0.00 73 1020.0
20260906145223 71 79 2.0 3.0 0.00 0.00 0.00 74 1019.9
20260906144719 70 188 1.0 2.0 0.00 0.00 0.00 75 1020.1
20260906144213 70 239 0.0 1.0 0.00 0.00 0.00 76 1020.0
20260906143712 70 263 1.0 1.0 0.00 0.00 0.00 75 1019.9
20260906143210 70 172 0.0 0.0 0.00 0.00 0.00 75 1019.8
20260906142709 70 162 0.0 0.0 0.00 0.00 0.00 75 1019.8
20260906142205 70 182 0.0 1.0 0.00 0.00 0.00 76 1019.8
20260906141703 72 88 3.0 3.0 0.00 0.00 0.00 74 1019.8
20260906141158 71 99 2.0 2.0 0.00 0.00 0.00 74 1019.8
20260906140657 70 185 0.0 0.0 0.00 0.00 0.00 77 1019.8
20260906140153 70 131 1.0 1.0 0.00 0.00 0.00 75 1019.6
20260906135649 69 198 0.0 0.0 0.00 0.00 0.00 76 1019.7
20260906135146 70 115 1.0 1.0 0.00 0.00 0.00 76 1019.8
20260906134641 71 90 2.0 2.0 0.00 0.00 0.00 76 1019.7
20260906134136 71 101 1.0 2.0 0.00 0.00 0.00 75 1019.5
20260906133631 71 180 0.0 0.0 0.00 0.00 0.00 75 1019.6
20260906133126 69 249 1.0 2.0 0.00 0.00 0.00 76 1019.7
20260906132621 69 199 0.0 0.0 0.00 0.00 0.00 76 1019.7
20260906132117 70 142 1.0 1.0 0.00 0.00 0.00 77 1019.5
20260906131612 69 227 0.0 0.0 0.00 0.00 0.00 77 1019.6
20260906131107 70 118 1.0 2.0 0.00 0.00 0.00 75 1019.5
20260906130603 71 148 1.0 1.0 0.00 0.00 0.00 75 1019.4
20260906130057 71 133 1.0 1.0 0.00 0.00 0.00 74 1019.6
20260906125554 70 230 0.0 1.0 0.00 0.00 0.00 76 1019.6
20260906125054 71 212 0.0 0.0 0.00 0.00 0.00 75 1019.7
20260906124549 70 147 0.0 0.0 0.00 0.00 0.00 76 1019.5
20260906124044 68 149 0.0 0.0 0.00 0.00 0.00 78 1019.4
20260906123544 68 263 2.0 2.0 0.00 0.00 0.00 79 1019.4
20260906123040 67 284 1.0 2.0 0.00 0.00 0.00 81 1019.3
20260906122538 66 179 0.0 0.0 0.00 0.00 0.00 82 1019.6
20260906122035 66 207 1.0 2.0 0.00 0.00 0.00 83 1019.4
20260906121531 67 234 0.0 0.0 0.00 0.00 0.00 83 1019.4
20260906121027 66 213 0.0 0.0 0.00 0.00 0.00 83 1019.4
20260906120521 66 206 0.0 0.0 0.00 0.00 0.00 83 1019.2
20260906120019 67 205 0.0 0.0 0.00 0.00 0.00 82 1019.4
20260906115513 67 205 0.0 1.0 0.00 0.00 0.00 82 1019.2
20260906115008 66 290 1.0 1.0 0.00 0.00 0.00 85 1019.2
20260906114503 65 324 2.0 3.0 0.00 0.00 0.00 86 1019.0
20260906113959 65 268 1.0 2.0 0.00 0.00 0.00 88 1018.8
20260906113457 64 221 0.0 0.0 0.00 0.00 0.00 90 1018.9
20260906112953 64 213 0.0 0.0 0.00 0.00 0.00 91 1018.7
20260906112448 63 249 0.0 1.0 0.00 0.00 0.00 92 1018.9
20260906111944 63 243 0.0 0.0 0.00 0.00 0.00 92 1018.9
20260906111443 63 251 0.0 0.0 0.00 0.00 0.00 92 1018.8
20260906110938 63 231 0.0 0.0 0.00 0.00 0.00 92 1018.7
20260906110433 63 229 0.0 0.0 0.00 0.00 0.00 92 1018.8
20260906105932 63 320 2.0 2.0 0.00 0.00 0.00 92 1018.6
20260906105428 62 263 0.0 1.0 0.00 0.00 0.00 92 1018.6
20260906104924 62 220 0.0 0.0 0.00 0.00 0.00 92 1018.5
20260906104422 62 237 0.0 0.0 0.00 0.00 0.00 91 1018.3
20260906103922 62 215 0.0 0.0 0.00 0.00 0.00 91 1018.0
20260906103420 63 212 0.0 0.0 0.00 0.00 0.00 91 1018.0
20260906102916 63 212 0.0 0.0 0.00 0.00 0.00 91 1018.1
20260906102415 63 210 0.0 0.0 0.00 0.00 0.00 91 1017.9
20260906101910 63 203 0.0 0.0 0.00 0.00 0.00 91 1017.9
20260906101405 64 228 0.0 0.0 0.00 0.00 0.00 90 1018.0
20260906100900 64 213 0.0 0.0 0.00 0.00 0.00 90 1018.1
20260906100359 64 195 0.0 1.0 0.00 0.00 0.00 90 1018.1
20260906095855 64 216 0.0 1.0 0.00 0.00 0.00 90 1018.0
20260906095350 64 170 0.0 0.0 0.00 0.00 0.00 90 1017.8
20260906094849 64 105 1.0 1.0 0.00 0.00 0.00 90 1017.9
20260906094344 64 201 0.0 0.0 0.00 0.00 0.00 90 1017.9
20260906093835 64 203 0.0 0.0 0.00 0.00 0.00 90 1017.7
20260906093331 64 205 0.0 0.0 0.00 0.00 0.00 90 1017.7
20260906092825 64 157 0.0 1.0 0.00 0.00 0.00 91 1017.6
20260906092319 63 219 0.0 0.0 0.00 0.00 0.00 91 1017.6
20260906091815 63 230 0.0 0.0 0.00 0.00 0.00 91 1017.6
20260906091311 63 232 0.0 0.0 0.00 0.00 0.00 91 1017.5
20260906090807 63 274 0.0 0.0 0.00 0.00 0.00 91 1017.6
20260906090307 63 222 0.0 0.0 0.00 0.00 0.00 91 1017.3
20260906085806 63 238 0.0 1.0 0.00 0.00 0.00 90 1017.3
20260906085259 63 239 0.0 0.0 0.00 0.00 0.00 90 1017.2
20260906084754 63 244 0.0 0.0 0.00 0.00 0.00 90 1017.2
20260906084253 63 240 0.0 1.0 0.00 0.00 0.00 90 1017.3
20260906083749 64 207 0.0 0.0 0.00 0.00 0.00 89 1017.1
20260906083244 64 175 0.0 0.0 0.00 0.00 0.00 89 1017.1
20260906082739 64 197 0.0 0.0 0.00 0.00 0.00 89 1017.1
20260906082234 64 222 0.0 0.0 0.00 0.00 0.00 89 1017.2
20260906081730 64 217 0.0 0.0 0.00 0.00 0.00 89 1017.0
20260906081225 64 216 0.0 0.0 0.00 0.00 0.00 89 1017.1
20260906080722 64 224 0.0 0.0 0.00 0.00 0.00 89 1016.9
20260906080218 64 225 0.0 0.0 0.00 0.00 0.00 89 1017.0
20260906075712 64 229 0.0 0.0 0.00 0.00 0.00 88 1017.0
20260906075207 65 226 0.0 0.0 0.00 0.00 0.00 88 1017.0
20260906074701 65 218 0.0 0.0 0.00 0.00 0.00 88 1017.4
20260906074201 65 204 0.0 0.0 0.00 0.00 0.00 87 1017.1
20260906073656 65 204 0.0 0.0 0.00 0.00 0.00 87 1017.1
20260906073151 65 202 0.0 0.0 0.00 0.00 0.00 87 1017.1
20260906072646 65 209 0.0 0.0 0.00 0.00 0.00 87 1017.2
20260906072141 65 208 0.0 0.0 0.00 0.00 0.00 87 1017.2
20260906071632 65 193 0.0 0.0 0.00 0.00 0.00 87 1016.9
20260906071126 66 153 0.0 0.0 0.00 0.00 0.00 87 1017.1
20260906070623 66 230 0.0 0.0 0.00 0.00 0.00 86 1017.0
20260906070119 66 191 0.0 0.0 0.00 0.00 0.00 87 1017.2
20260906065618 66 142 2.0 3.0 0.00 0.00 0.00 87 1017.0
20260906065113 66 165 3.0 4.0 0.00 0.00 0.00 87 1017.0
20260906064609 66 94 4.0 4.0 0.00 0.00 0.00 89 1017.0
20260906064058 66 96 3.0 4.0 0.00 0.00 0.00 89 1017.0
20260906063554 66 166 1.0 1.0 0.00 0.00 0.00 90 1017.0
20260906063050 66 207 0.0 0.0 0.00 0.00 0.00 90 1016.9
20260906062545 65 162 0.0 1.0 0.00 0.00 0.00 90 1017.1
20260906062044 66 168 0.0 0.0 0.00 0.00 0.00 90 1017.1
20260906061541 66 205 0.0 0.0 0.00 0.00 0.00 90 1017.2
20260906061040 66 7 1.0 2.0 0.00 0.00 0.00 90 1017.3
20260906060537 66 261 0.0 0.0 0.00 0.00 0.00 90 1017.2
20260906060034 66 229 0.0 0.0 0.00 0.00 0.00 90 1017.5
20260906055529 66 330 1.0 2.0 0.00 0.00 0.00 90 1017.4
20260906055025 66 233 0.0 0.0 0.00 0.00 0.00 90 1017.3
20260906054524 66 235 0.0 0.0 0.00 0.00 0.00 90 1017.5
20260906054020 66 237 0.0 0.0 0.00 0.00 0.00 90 1017.2
20260906053516 65 227 0.0 0.0 0.00 0.00 0.00 90 1017.4
20260906053011 65 215 0.0 0.0 0.00 0.00 0.00 89 1017.2
20260906052507 65 214 0.0 0.0 0.00 0.00 0.00 89 1017.2
20260906052004 66 214 0.0 0.0 0.00 0.00 0.00 89 1017.3
20260906051459 66 208 0.0 0.0 0.00 0.00 0.00 88 1017.1
20260906050954 66 215 0.0 0.0 0.00 0.00 0.00 88 1017.2
20260906050453 66 202 0.0 0.0 0.00 0.00 0.00 88 1017.4
20260906045948 67 173 0.0 0.0 0.00 0.00 0.00 88 1017.3
20260906045447 67 104 2.0 3.0 0.00 0.00 0.00 88 1017.3
20260906044943 67 173 2.0 3.0 0.00 0.00 0.00 87 1017.3
20260906044438 67 196 0.0 1.0 0.00 0.00 0.00 87 1017.3
20260906043933 67 152 1.0 1.0 0.00 0.00 0.00 87 1017.2
20260906043429 67 154 2.0 4.0 0.00 0.00 0.00 86 1017.2
20260906042925 67 111 1.0 1.0 0.00 0.00 0.00 86 1017.4
20260906042424 66 93 3.0 4.0 0.00 0.00 0.00 86 1017.2
20260906041918 66 124 1.0 2.0 0.00 0.00 0.00 86 1017.1
20260906041409 66 115 1.0 2.0 0.00 0.00 0.00 86 1017.1
20260906040909 66 122 0.0 1.0 0.00 0.00 0.00 86 1017.1
20260906040404 65 217 0.0 0.0 0.00 0.00 0.00 85 1017.2
20260906035859 65 223 0.0 0.0 0.00 0.00 0.00 84 1017.1
20260906035354 65 223 0.0 0.0 0.00 0.00 0.00 84 1017.0
20260906034849 65 281 0.0 0.0 0.00 0.00 0.00 83 1017.1
20260906034344 66 224 0.0 0.0 0.00 0.00 0.00 83 1017.1
20260906033840 66 261 0.0 0.0 0.00 0.00 0.00 83 1017.0
20260906033339 66 213 0.0 0.0 0.00 0.00 0.00 82 1017.1
20260906032836 66 220 0.0 0.0 0.00 0.00 0.00 82 1016.8
20260906032332 66 229 0.0 0.0 0.00 0.00 0.00 82 1016.9
20260906031827 66 222 0.0 0.0 0.00 0.00 0.00 81 1016.6
20260906031322 66 228 0.0 0.0 0.00 0.00 0.00 81 1016.9
20260906030821 66 213 0.0 0.0 0.00 0.00 0.00 81 1016.8
20260906030317 67 207 0.0 0.0 0.00 0.00 0.00 81 1016.7
20260906025817 67 213 0.0 0.0 0.00 0.00 0.00 80 1016.8
20260906025311 67 223 0.0 0.0 0.00 0.00 0.00 80 1016.8
20260906024809 67 358 1.0 2.0 0.00 0.00 0.00 79 1016.7
20260906003054 72 233 1.0 1.0 0.00 0.00 0.00 70 1015.9
20260906002548 72 233 1.0 1.0 0.00 0.00 0.00 70 1015.9
20260906002044 72 328 0.0 1.0 0.00 0.00 0.00 69 1015.8
20260906001539 72 284 1.0 2.0 0.00 0.00 0.00 69 1015.7
20260906001038 72 243 1.0 1.0 0.00 0.00 0.00 68 1015.6
20260906000535 72 354 1.0 1.0 0.00 0.00 0.00 69 1015.6
20260906000030 72 344 2.0 2.0 0.00 0.00 0.00 68 1015.5
20260905235524 73 215 0.0 0.0 0.00 0.00 0.00 68 1015.3
20260905235019 73 210 0.0 0.0 0.00 0.00 0.00 68 1015.2
20260905234515 73 187 0.0 1.0 0.00 0.00 0.00 67 1015.3
20260905234014 74 222 0.0 0.0 0.00 0.00 0.00 67 1015.4
20260905233509 74 217 0.0 0.0 0.00 0.00 0.00 67 1015.4
20260905233009 74 313 1.0 2.0 0.00 0.00 0.00 66 1015.4
20260905232504 74 250 1.0 1.0 0.00 0.00 0.00 66 1015.2
20260905232000 75 288 1.0 1.0 0.00 0.00 0.00 65 1015.0
20260905231455 75 230 0.0 0.0 0.00 0.00 0.00 64 1015.3
20260905230952 75 228 0.0 0.0 0.00 0.00 0.00 64 1015.1
20260905230450 75 223 0.0 0.0 0.00 0.00 0.00 64 1015.1
20260905225948 75 278 0.0 1.0 0.00 0.00 0.00 63 1015.0
20260905225444 76 229 0.0 0.0 0.00 0.00 0.00 63 1014.9
20260905224939 76 193 0.0 0.0 0.00 0.00 0.00 62 1014.7
20260905224435 77 197 1.0 1.0 0.00 0.00 0.00 61 1014.7
20260905223934 77 280 4.0 4.0 0.00 0.00 0.00 60 1015.1
20260905223432 78 206 2.0 2.0 0.00 0.00 0.00 61 1014.9
20260905222926 79 227 0.0 0.0 0.00 0.00 0.00 59 1014.9
20260905222426 78 191 0.0 0.0 0.00 0.00 0.00 59 1014.9
20260905221921 79 70 1.0 1.0 0.00 0.00 0.00 57 1014.6
20260905221418 79 302 2.0 2.0 0.00 0.00 0.00 56 1014.4
20260905220914 78 0 3.0 3.0 0.00 0.00 0.00 57 1014.4
20260905220410 78 359 4.0 6.0 0.00 0.00 0.00 58 1014.6
20260905215908 79 1 3.0 4.0 0.00 0.00 0.00 57 1014.5
20260905215404 79 338 3.0 4.0 0.00 0.00 0.00 57 1014.4
20260905214900 79 330 4.0 6.0 0.00 0.00 0.00 56 1014.4
20260905214356 79 252 1.0 1.0 0.00 0.00 0.00 57 1014.6
20260905213845 79 335 3.0 3.0 0.00 0.00 0.00 56 1014.6
20260905213341 80 283 2.0 2.0 0.00 0.00 0.00 55 1014.6
20260905212836 80 260 1.0 2.0 0.00 0.00 0.00 55 1014.4
20260905212335 80 320 3.0 4.0 0.00 0.00 0.00 54 1014.5
20260905211830 80 28 1.0 3.0 0.00 0.00 0.00 55 1014.4
20260905211326 79 310 1.0 1.0 0.00 0.00 0.00 55 1014.3
20260905210822 79 97 3.0 6.0 0.00 0.00 0.00 55 1014.4
20260905210321 80 15 4.0 4.0 0.00 0.00 0.00 53 1014.2
20260905205815 80 3 2.0 2.0 0.00 0.00 0.00 53 1014.1
20260905205309 81 256 1.0 1.0 0.00 0.00 0.00 55 1014.2
20260905204809 80 107 1.0 2.0 0.00 0.00 0.00 53 1014.3
20260905204305 80 270 4.0 4.0 0.00 0.00 0.00 54 1014.3
20260905203804 80 247 2.0 3.0 0.00 0.00 0.00 55 1014.1
20260905203300 81 322 4.0 4.0 0.00 0.00 0.00 52 1014.3
20260905202755 81 236 0.0 1.0 0.00 0.00 0.00 55 1013.9
20260905202250 80 231 1.0 2.0 0.00 0.00 0.00 56 1014.1
20260905201746 81 322 4.0 7.0 0.00 0.00 0.00 53 1014.0
20260905201241 80 247 3.0 6.0 0.00 0.00 0.00 55 1014.0
20260905200736 80 342 3.0 4.0 0.00 0.00 0.00 55 1014.1
20260905200232 81 332 5.0 7.0 0.00 0.00 0.00 53 1014.0
20260905195729 81 348 2.0 3.0 0.00 0.00 0.00 54 1014.0
20260905195224 81 244 1.0 1.0 0.00 0.00 0.00 55 1014.3
20260905194720 80 152 2.0 2.0 0.00 0.00 0.00 55 1014.2
20260905194219 81 181 0.0 2.0 0.00 0.00 0.00 55 1014.2
20260905193713 80 223 0.0 0.0 0.00 0.00 0.00 57 1014.2
20260905193209 81 312 2.0 3.0 0.00 0.00 0.00 56 1014.1
20260905192704 81 284 3.0 3.0 0.00 0.00 0.00 53 1014.2
20260905192200 81 278 3.0 3.0 0.00 0.00 0.00 54 1014.0
20260905191700 80 36 0.0 1.0 0.00 0.00 0.00 56 1014.3
20260905191158 80 303 0.0 1.0 0.00 0.00 0.00 58 1014.4
20260905190657 80 234 2.0 3.0 0.00 0.00 0.00 56 1014.4
20260905190156 80 191 1.0 1.0 0.00 0.00 0.00 59 1014.4
20260905185655 80 354 2.0 2.0 0.00 0.00 0.00 56 1014.4
20260905185150 80 243 3.0 4.0 0.00 0.00 0.00 57 1014.3
20260905184649 80 71 1.0 2.0 0.00 0.00 0.00 57 1014.4
20260905184148 81 221 0.0 0.0 0.00 0.00 0.00 58 1014.3
20260905183647 79 277 1.0 1.0 0.00 0.00 0.00 60 1014.3
20260905183142 79 220 3.0 6.0 0.00 0.00 0.00 58 1014.4
20260905182642 80 233 4.0 4.0 0.00 0.00 0.00 58 1014.8
20260905182137 80 178 1.0 1.0 0.00 0.00 0.00 58 1014.6
20260905181632 79 320 4.0 6.0 0.00 0.00 0.00 57 1014.7
20260905181131 79 231 2.0 3.0 0.00 0.00 0.00 57 1014.8
20260905180626 80 250 1.0 2.0 0.00 0.00 0.00 56 1014.8
20260905180121 78 281 1.0 2.0 0.00 0.00 0.00 61 1014.7
20260905175620 78 108 1.0 2.0 0.00 0.00 0.00 59 1014.7
20260905175115 76 346 3.0 3.0 0.00 0.00 0.00 61 1014.9
20260905174610 77 210 1.0 1.0 0.00 0.00 0.00 61 1014.8
20260905170430 78 90 4.0 4.0 0.00 0.00 0.00 59 1015.1
20260905165930 78 90 4.0 4.0 0.00 0.00 0.00 59 1015.1
20260905165425 78 90 4.0 4.0 0.00 0.00 0.00 59 1015.1
20260905164921 77 186 1.0 2.0 0.00 0.00 0.00 60 1015.1
20260905164420 77 53 3.0 6.0 0.00 0.00 0.00 61 1015.4
20260905163915 78 38 5.0 7.0 0.00 0.00 0.00 60 1015.3
20260905163412 77 125 4.0 7.0 0.00 0.00 0.00 62 1015.2
20260905162908 77 338 4.0 4.0 0.00 0.00 0.00 61 1015.1
20260905162402 76 345 4.0 6.0 0.00 0.00 0.00 62 1015.1
20260905161857 77 298 3.0 6.0 0.00 0.00 0.00 62 1014.9